Home   Weather   Recklinghausen   Past weeks

Flag for Germany Past Weather in Recklinghausen, North Rhine-Westphalia, Germany — Yesterday and Last 2 Weeks

Now
48 °F

Clear.


Feels Like: 48 °F
Forecast: 54 / 69 °F
Wind: 1 mph from North

Location: Duesseldorf

Current Time: Sep 27, 2016 at 3:55:38 AM

Latest Report: Sep 27, 2016 at 3:20 AM


Visibility: 10 mi

Pressure: 30.24 "Hg

Humidity: 100%

Dew Point: 48 °F

Location of RecklinghausenLocation

Past Weather in Recklinghausen — Graph

°F

Recklinghausen Temperature Yesterday

Maximum temperature yesterday: 70 °F (at 3:50 PM)
Minimum temperature yesterday: 50 °F (at 6:50 AM)
Average temperature yesterday: 60 °F

High & Low Weather Summary for the Past Weeks

 TemperatureHumidityPressure
High90 °F (Sep 13, 2:20 PM)100% (Sep 12, 2:50 AM)30.30 "Hg (Sep 12, 2:50 AM)
Low46 °F (Sep 22, 3:20 AM)27% (Sep 14, 3:50 PM)29.77 "Hg (Sep 15, 4:20 PM)
Average65 °F70%30.05 "Hg
* Reported Sep 12 2:20 AM — Sep 27 2:50 AM, Recklinghausen, Weather by CustomWeather, © 2016

Note: Actual official high and low records may vary slightly from our data, if they occured in-between our weather recording intervals... More about our weather records

Advertising

Recklinghausen Weather History for the Previous 24 Hours

Scroll right to see more
 ConditionsComfort  
Time TempWeatherWind HumidityBarometerVisibility
2:50 AM
Tue, Sep 27
50 °FClear.2 mph94%30.24 "Hg10 mi
2:20 AM52 °FClear.2 mph94%30.24 "Hg10 mi
1:50 AM52 °FClear.2 mph94%30.24 "Hg10 mi
1:20 AM52 °FClear.1 mph88%30.24 "Hg10 mi
12:50 AM52 °FClear.1 mph94%30.24 "Hg10 mi
12:20 AM52 °FClear.2 mph88%30.24 "Hg10 mi
11:50 PM
Mon, Sep 26
52 °FClear.1 mph94%30.24 "Hg10 mi
11:20 PM52 °FClear.2 mph88%30.24 "Hg10 mi
10:50 PM54 °FClear.3 mph82%30.24 "Hg10 mi
10:20 PM55 °FClear.3 mph77%30.24 "Hg10 mi
9:50 PM55 °FPassing clouds.3 mph77%30.24 "HgN/A
9:20 PM57 °FPassing clouds.3 mph72%30.24 "HgN/A
8:50 PM59 °FPassing clouds.5 mph68%30.24 "HgN/A
8:20 PM61 °FClear.7 mph63%30.24 "Hg10 mi
7:50 PM63 °FPassing clouds.5 mph56%30.21 "HgN/A
7:20 PM63 °FPassing clouds.6 mph56%30.21 "HgN/A
6:50 PM64 °FPartly sunny.6 mph56%30.21 "HgN/A
6:20 PM66 °FPartly sunny.5 mph52%30.21 "HgN/A
5:50 PM66 °FPartly sunny.7 mph49%30.21 "HgN/A
5:20 PM66 °FPartly sunny.6 mph52%30.21 "HgN/A
4:50 PM68 °FPartly sunny.6 mph49%30.21 "HgN/A
4:20 PM68 °FScattered clouds.6 mph49%30.21 "HgN/A
3:50 PM70 °FScattered clouds.3 mph46%30.21 "HgN/A
3:20 PM66 °FScattered clouds.3 mph49%30.21 "HgN/A
2:50 PM66 °FScattered clouds.2 mph52%30.21 "HgN/A
2:20 PM66 °FScattered clouds.2 mph56%30.21 "HgN/A
1:50 PM66 °FScattered clouds.3 mph56%30.21 "HgN/A
1:20 PM64 °FScattered clouds.2 mph64%30.21 "HgN/A
12:50 PM64 °FPassing clouds.3 mph64%30.24 "HgN/A
12:20 PM64 °FPassing clouds.6 mph64%30.24 "HgN/A
11:50 AM63 °FPassing clouds.3 mph68%30.24 "HgN/A
11:20 AM63 °FPassing clouds.3 mph68%30.24 "HgN/A
10:50 AM61 °FSunny.3 mph72%30.24 "Hg10 mi
10:20 AM59 °FPassing clouds.5 mph72%30.24 "HgN/A
9:50 AM57 °FSunny.5 mph77%30.24 "Hg10 mi
9:20 AM55 °FSunny.5 mph82%30.24 "Hg10 mi
8:50 AM54 °FSunny.6 mph88%30.24 "Hg10 mi
8:20 AM52 °FPassing clouds.3 mph88%30.21 "HgN/A
7:50 AM50 °FSunny.3 mph88%30.21 "Hg10 mi
7:20 AM50 °FClear.3 mph94%30.21 "Hg10 mi
6:50 AM50 °FClear.3 mph94%30.21 "Hg10 mi
6:20 AM52 °FClear.3 mph94%30.21 "Hg10 mi
5:50 AM54 °FClear.5 mph88%30.21 "Hg10 mi
5:20 AM54 °FClear.3 mph88%30.21 "Hg10 mi
4:50 AM57 °FClear.7 mph77%30.21 "Hg10 mi
4:20 AM57 °FPassing clouds.6 mph82%30.21 "HgN/A
3:50 AM59 °FCool.6 mph72%30.21 "HgN/A
3:20 AM61 °FClear.8 mph72%30.21 "Hg10 mi
Weather by CustomWeather, © 2016

See weather overviewHow to use our weather pages